Zurück zum Katalog

STARLINK-2555

AktivKommunikationVLEO
NORAD 48291·PAYLOAD·🇺🇸 United States

Gestartet Apr 29, 2021 von Cape Canaveral Space Force Station

Loading…

Nächste Überflüge (nächste 24 Stunden)

TLE

AktuellSource: CelesTrak SupGP

Epoche: Sep 14, 2026, 21:55 UTC

1 48291C 21036R   26257.91368056  .00050293  00000+0  16171-2 0  2579
2 48291  53.1577 277.2145 0001237  88.2217 312.1651 15.31680646    13

Verfolge STARLINK-2555 in Echtzeit mit AllMySat

Download on the App Store